Location: P�rn�nmaa
(61.1833°N, 23.0000°E)
Time: 16:52:39
(UTC+00:00)

NOSS 2-2 (D) - Pass Details

Date: 08 December 2019
Orbit: 485 x 1724 km, 63.3° (Epoch: 19 January)

Event Time Altitude Azimuth Distance (km) Brightness Sun altitude
Rises 17:20:12 0° 266° (W) 2,700 8.1 -27.0°
Reaches altitude 10° 17:22:11 10° 268° (W) 1,893 7.0 -27.3°
Enters shadow 17:25:40 59° 301° (WNW) 765 4.1 -27.7°
